Flight Track Log - Related Links

Times and Time Zones

All times are in EDT time to prevent confusion due to time zone crossing. See the SWA2676 flight status page for this flight to view local times or setup timezone preferences in your user account.

Time Position Orientation Groundspeed Altitude Reporting Facility
EDT Latitude Longitude Course Direction KTS MPH feet Rate Location/Type
10:57AM 28.4167 -81.3000 156° South 158 182 500  Level Orlando TRACON
10:57AM 28.3833 -81.2833 156° South 198 228 2,100 2,722 Climbing Orlando TRACON
10:58AM 28.3333 -81.2333 139° Southeast 240 276 4,900 3,223 Climbing Orlando TRACON
10:59AM 28.3333 -81.1500 90° East 290 334 8,600 2,773 Climbing Orlando TRACON
11:00AM 28.4167 -81.0833 35° Northeast 340 391 11,000 2,455 Climbing Orlando TRACON
11:02AM 28.5167 -81.1000 352° North 356 410 14,000 2,456 Climbing Orlando TRACON
11:04AM 28.7189 -81.2022 336° Northwest 385 443 18,900 2,406 Climbing Jacksonville Center
11:05AM 28.8239 -81.2550 336° Northwest 398 458 21,500 2,050 Climbing Jacksonville Center
11:06AM 28.9289 -81.3056 337° Northwest 404 465 23,000 1,450 Climbing Jacksonville Center
11:07AM 29.0483 -81.3392 346° North 415 478 24,400 1,500 Climbing Jacksonville Center
11:08AM 29.1758 -81.3492 356° North 436 502 26,000 1,650 Climbing Jacksonville Center
11:09AM 29.3111 -81.3281 North 454 522 27,700 1,650 Climbing Jacksonville Center
11:10AM 29.4469 -81.3281 360° North 472 543 29,300 1,350 Climbing Jacksonville Center
11:11AM 29.5806 -81.3403 355° North 477 549 30,400 1,500 Climbing Jacksonville Center
11:12AM 29.7394 -81.3450 359° North 484 557 32,300 1,650 Climbing Jacksonville Center
11:13AM 29.8792 -81.3356 North 500 575 33,700 1,350 Climbing Jacksonville Center
11:14AM 30.0189 -81.3261 North 495 570 35,000 650 Climbing Jacksonville Center
11:15AM 30.1586 -81.3094 North 495 570 35,000  Level Jacksonville Center
11:16AM 30.2872 -81.2567 20° North 500 575 35,000 800 Level Jacksonville Center
11:17AM 30.4181 -81.1967 22° Northeast 495 570 36,600 1,000 Climbing Jacksonville Center
11:18AM 30.5425 -81.1392 22° Northeast 489 563 37,000 200 Climbing Jacksonville Center
11:19AM 30.6669 -81.0836 21° North 479 551 37,000  Level Jacksonville Center
11:20AM 30.7914 -81.0256 22° Northeast 479 551 37,000  Level Jacksonville Center
11:21AM 30.9181 -80.9700 21° North 479 551 37,000  Level Jacksonville Center
11:22AM 31.0444 -80.9092 22° Northeast 479 551 37,000  Level Jacksonville Center
11:23AM 31.1708 -80.8531 21° North 484 557 37,000 -200 Level Jacksonville Center
11:24AM 31.2931 -80.7919 23° Northeast 484 557 36,600 -700 Descending Jacksonville Center
11:25AM 31.4217 -80.7381 20° North 484 557 35,600 -800 Descending Jacksonville Center
11:26AM 31.5500 -80.6767 22° Northeast 490 564 35,000 -300 Descending Jacksonville Center
11:27AM 31.6661 -80.6225 22° Northeast 490 564 35,000  Level Jacksonville Center
11:28AM 31.8089 -80.5556 22° Northeast 495 570 35,000  Level Jacksonville Center
11:29AM 31.9289 -80.4986 22° Northeast 500 575 35,000  Level Jacksonville Center
11:30AM 32.0694 -80.4311 22° Northeast 500 575 35,000  Level Jacksonville Center
11:31AM 32.2019 -80.3686 22° Northeast 506 582 35,000  Level Jacksonville Center
11:32AM 32.3219 -80.3114 22° Northeast 506 582 35,000  Level Jacksonville Center
11:33AM 32.4519 -80.2486 22° Northeast 506 582 35,000 -400 Level Jacksonville Center
11:34AM 32.5844 -80.1856 22° Northeast 506 582 34,200 -850 Descending Jacksonville Center
11:35AM 32.7144 -80.1247 21° North 506 582 33,300 -600 Descending Jacksonville Center
11:36AM 32.8447 -80.0614 22° Northeast 506 582 33,000 -150 Descending Jacksonville Center
11:37AM 32.9661 -79.9833 28° Northeast 499 574 33,000  Level Jacksonville Center
11:38AM 33.0808 -79.9003 31° Northeast 483 556 33,000  Level Jacksonville Center
11:39AM 33.1939 -79.8197 31° Northeast 477 549 33,000  Level Jacksonville Center
11:40AM 33.3067 -79.7361 32° Northeast 472 543 33,000  Level Jacksonville Center
11:41AM 33.4192 -79.6550 31° Northeast 467 537 33,000  Level Jacksonville Center
11:42AM 33.5297 -79.5739 31° Northeast 467 537 33,000  Level Jacksonville Center
11:43AM 33.6383 -79.4925 32° Northeast 467 537 33,000  Level Jacksonville Center
11:44AM 33.7467 -79.4133 31° Northeast 461 531 33,000  Level Jacksonville Center
11:45AM 33.8550 -79.3339 31° Northeast 461 531 33,000  Level Jacksonville Center
11:46AM 33.9653 -79.2494 32° Northeast 461 531 33,000  Level Jacksonville Center
11:47AM 34.1619 -79.1056 31° Northeast 494 568 33,000  Level Washington Center
11:48AM 34.2708 -79.0197 33° Northeast 479 551 33,000  Level Washington Center
11:49AM 34.3603 -78.9556 31° Northeast 474 545 33,000  Level Washington Center
11:50AM 34.4797 -78.8647 32° Northeast 463 533 33,000  Level Washington Center
11:51AM 34.6033 -78.7686 33° Northeast 463 533 33,000  Level Washington Center
11:52AM 34.7139 -78.6847 32° Northeast 463 533 33,000  Level Washington Center
11:53AM 34.8225 -78.6003 33° Northeast 463 533 33,000  Level Washington Center
11:54AM 34.9353 -78.5156 32° Northeast 463 533 33,000  Level Washington Center
11:55AM 35.0478 -78.4283 32° Northeast 463 533 33,000  Level Washington Center
11:56AM 35.1606 -78.3408 32° Northeast 463 533 33,000  Level Washington Center
11:57AM 35.2708 -78.2556 32° Northeast 463 533 33,000  Level Washington Center
11:58AM 35.3836 -78.1675 32° Northeast 468 539 33,000  Level Washington Center
11:59AM 35.4958 -78.0794 33° Northeast 468 539 33,000  Level Washington Center
12:00PM 35.6061 -77.9961 32° Northeast 468 539 33,000  Level Washington Center
12:01PM 35.7058 -77.9172 33° Northeast 468 539 33,000  Level Washington Center
12:02PM 35.8158 -77.8308 32° Northeast 468 539 33,000  Level Washington Center
12:03PM 35.9261 -77.7442 32° Northeast 468 539 33,000  Level Washington Center
12:04PM 36.0339 -77.6544 34° Northeast 463 533 33,000  Level Washington Center
12:05PM 36.1381 -77.5544 38° Northeast 469 540 33,000  Level Washington Center
12:06PM 36.2481 -77.4489 38° Northeast 469 540 33,000  Level Washington Center
12:07PM 36.3453 -77.3611 36° Northeast 467 537 33,000  Level Washington Center
12:08PM 36.4511 -77.2628 37° Northeast 467 537 33,000  Level Washington Center
12:09PM 36.5547 -77.1614 38° Northeast 467 537 33,000  Level Washington Center
12:10PM 36.6603 -77.0625 37° Northeast 467 537 33,000  Level Washington Center
12:11PM 36.7678 -76.9636 36° Northeast 472 543 33,000  Level Washington Center
12:12PM 36.8753 -76.8642 36° Northeast 472 543 33,000  Level Washington Center
12:13PM 36.9828 -76.7697 35° Northeast 472 543 33,000  Level Washington Center
12:14PM 37.0900 -76.6697 37° Northeast 478 550 33,000  Level Washington Center
12:15PM 37.1994 -76.5722 35° Northeast 483 556 33,000  Level Washington Center
12:16PM 37.3064 -76.4717 37° Northeast 483 556 33,000  Level Washington Center
12:17PM 37.4239 -76.3686 35° Northeast 483 556 33,000  Level Washington Center
12:18PM 37.5311 -76.2700 36° Northeast 478 550 33,000  Level Washington Center
12:19PM 37.6400 -76.1686 36° Northeast 478 550 33,000  Level Washington Center
12:20PM 37.7383 -76.0856 34° Northeast 478 550 33,000  Level Washington Center
12:21PM 37.8556 -75.9706 38° Northeast 478 550 33,000  Level Washington Center
12:22PM 37.9622 -75.8683 37° Northeast 478 550 33,000  Level Washington Center
12:23PM 38.0708 -75.7686 36° Northeast 484 557 33,000  Level Washington Center
12:24PM 38.1794 -75.6658 37° Northeast 484 557 33,000  Level Washington Center
12:25PM 38.2836 -75.5653 37° Northeast 484 557 33,000  Level Washington Center
12:26PM 38.4044 -75.4858 27° Northeast 484 557 33,000  Level Washington Center
12:27PM 38.5275 -75.4350 18° North 467 537 33,000  Level Washington Center
12:28PM 38.6544 -75.3817 18° North 467 537 33,000  Level Washington Center
12:29PM 38.7817 -75.3306 17° North 467 537 33,000  Level Washington Center
12:30PM 38.8919 -75.2369 33° Northeast 467 537 33,000  Level Washington Center
12:31PM 38.9978 -75.1322 38° Northeast 467 537 33,000  Level Washington Center
12:32PM 39.1036 -75.0272 38° Northeast 472 543 33,000  Level Washington Center
12:33PM 39.2094 -74.9247 37° Northeast 477 549 33,000  Level Washington Center
12:34PM 39.3172 -74.8164 38° Northeast 484 557 33,000 -347 Level Washington Center
12:35PM 39.4228 -74.7103 38° Northeast 484 557 32,300 -843 Descending Washington Center
12:36PM 39.5261 -74.6094 37° Northeast 479 551 31,300 -942 Descending Washington Center
12:37PM 39.6294 -74.5031 38° Northeast 474 545 30,400 -993 Descending Washington Center
12:39PM 39.7714 -74.3603 38° Northeast 466 536 29,000 -604 Descending New York Center
12:40PM 39.8744 -74.2575 37° Northeast 466 536 29,000 -400 Level New York Center
12:41PM 39.9756 -74.1542 38° Northeast 461 531 28,200 -1,350 Descending New York Center
12:42PM 40.0700 -74.0556 39° Northeast 449 517 26,300 -1,600 Descending New York Center
12:43PM 40.1642 -73.9622 37° Northeast 433 498 25,000 -650 Descending New York Center
12:44PM 40.2522 -73.8658 40° Northeast 419 482 25,000  Level New York Center
12:45PM 40.3442 -73.7747 37° Northeast 414 476 25,000 -36 Level New York Center
12:47PM 40.5050 -73.6069 38° Northeast 417 480 24,900 -671 Descending Boston Center
12:48PM 40.5931 -73.5153 38° Northeast 412 474 23,100 -1,770 Descending Boston Center
12:49PM 40.6786 -73.4256 38° Northeast 400 460 21,300 -1,756 Descending Boston Center
12:50PM 40.7653 -73.3339 39° Northeast 385 443 19,500 -1,122 Descending Boston Center
12:51PM 40.8414 -73.2478 41° Northeast 366 421 19,000 -590 Descending Boston Center
12:52PM 40.9181 -73.1589 41° Northeast 366 421 18,300 -683 Descending Boston Center
12:53PM 40.9939 -73.0706 41° Northeast 364 419 17,600 -829 Descending Boston Center
12:54PM 41.0667 -72.9853 41° Northeast 351 404 16,600 -1,279 Descending Boston Center
12:55PM 41.1361 -72.9028 42° Northeast 335 386 15,000 -1,753 Descending Boston Center
12:55PM 41.1744 -72.8542 44° Northeast 323 372 14,000 -1,548 Descending Boston Center
12:56PM 41.2042 -72.8239 37° Northeast 326 375 13,400 -1,556 Descending Boston Center
12:56PM 41.2361 -72.7847 43° Northeast 317 365 12,600 -1,770 Descending Boston Center
12:57PM 41.2767 -72.7367 42° Northeast 317 365 11,600 -1,433 Descending Boston Center
12:57PM 41.3086 -72.7133 29° Northeast 290 334 11,000 -885 Descending Boston Center
12:58PM 41.3575 -72.7086 North 285 328 10,700 -590 Descending Boston Center
12:58PM 41.3883 -72.6931 21° North 294 338 10,400 -689 Descending Boston Center
12:59PM 41.4353 -72.6733 17° North 292 336 10,000 -627 Descending Boston Center
12:59PM 41.4758 -72.6553 18° North 288 331 9,700 -857 Descending Boston Center
01:00PM 41.5103 -72.6383 20° North 289 333 9,100 -1,400 Descending Boston Center
01:00PM 41.5494 -72.6214 18° North 278 320 8,300 -1,475 Descending Boston Center
01:01PM 41.5878 -72.6031 20° North 277 319 7,600 -1,377 Descending Boston Center
01:01PM 41.6214 -72.5864 20° North 269 310 6,900 -1,279 Descending Boston Center
01:02PM 41.6561 -72.5714 18° North 260 299 6,300 -1,082 Descending Boston Center
01:02PM 41.6853 -72.5575 20° North 233 268 5,800 -774 Descending Boston Center
01:03PM 41.7161 -72.5425 20° North 230 265 5,500 -885 Descending Boston Center
01:03PM 41.7403 -72.5308 20° North 199 229 4,900 -1,377 Descending Boston Center
01:04PM 41.7669 -72.5197 17° North 197 227 4,100 -1,500 Descending Boston Center
01:04PM 41.7803 -72.5133 20° North 186 214 3,700 -1,377 Descending Boston Center
01:05PM 41.8108 -72.5306 337° Northwest 165 190 2,700 -1,180 Descending Boston Center
01:05PM 41.8189 -72.5358 334° Northwest 153 176 2,500 -197 Descending Boston Center
01:06PM 41.8472 -72.5628 325° Northwest 159 183 2,500 -197 Level Boston Center
01:06PM 41.8544 -72.5744 310° West 165 190 2,300 -774 Descending Boston Center
01:07PM 41.8767 -72.6033 316° Northwest 154 177 1,700 -716 Descending Boston Center
01:07PM 41.8869 -72.6178 314° West 142 163 1,500 -689 Descending Boston Center
01:08PM 41.9036 -72.6400 315° West 142 163 1,000 -787 Descending Boston Center
01:08PM 41.9136 -72.6561 310° West 135 155 700 -787 Descending Boston Center
01:09PM 41.9314 -72.6781 317° Northwest 142 163 200 -732 Descending Boston Center

Login

Don't have an account? Register now (free) for customized features, flight alerts, and more!